Location: Conjunto Santa Maria
(19.9513°S, 43.9599°W)
Time: 12:37:50
(UTC+00:00)

BREEZE-M DEB (TANK) - Pass Details

Date: 21 January 2021
Orbit: 321 x 14933 km, 49.5° (Epoch: 03 March)

Event Time Altitude Azimuth Distance (km) Brightness Sun altitude
Rises 23:23:49 0° 231° (SW) 2,162 7.8 -22.4°
Reaches altitude 10° 23:25:14 10° 237° (WSW) 1,472 6.6 -22.7°
Maximum altitude 23:27:57 52° 316° (NW) 749 3.9 -23.2°
Enters shadow 23:28:33 48° 348° (NNW) 868 4.1 -23.4°
